Dallas/Ft Worth, TX

7:33 AM CDT on June 22, 2017 (GMT -0500)
Dallas-Fort Worth International

Weather History for KDFW - October, 2012

Change the Weather History Date:

Tuesday, October 9, 2012

  Actual Average Record
Temperature  
Mean Temperature 66 °F 70 °F  
Max Temperature 82 °F 81 °F 95 °F (1963)
Min Temperature 50 °F 59 °F 36 °F (1917)
Degree Days  
Heating Degree Days 0 1  
Month to date heating degree days 39 9  
Since 1 July heating degree days 39 15  
Cooling Degree Days 1 6  
Month to date cooling degree days 38 62  
Year to date cooling degree days 3155 2639  
Growing Degree Days 16 (Base 50)    
Moisture  
Dew Point 54 °F    
Average Humidity 67    
Maximum Humidity 87    
Minimum Humidity 47    
Precipitation  
Precipitation 0.00 in 0.13 in 1.92 in (1968)
Month to date precipitation T 0.97  
Year to date precipitation 28.24 27.63  
Snow  
Snow 0.00 in 0.00 in 0.00 in ()
Month to date snowfall 0.0 0.0  
Since 1 July snowfall 0.0 0.0  
Since 1 September snowfall 0.0 0.0  
Snow Depth 0.00 in    
Sea Level Pressure  
Sea Level Pressure 29.95 in    
Wind  
Wind Speed 12 mph (SSE)    
Max Wind Speed 26 mph    
Max Gust Speed 33 mph    
Visibility 10 miles    
Events      
T = Trace of Precipitation, MM = Missing Value Source: NWS Daily Summary

Daily Weather History Graph

Daily Weather History Graph

Search for Another Location

Airport or City:

Trip Planner

Search our weather history database for the weather conditions in past years. The results will help you decide how hot, cold, wet, or windy it might be!

Date:

Astronomy

Oct. 09, 2012 Rise Set
Actual Time 7:28 AM CDT 7:01 PM CDT
Civil Twilight 7:03 AM CDT 7:26 PM CDT
Nautical Twilight 6:34 AM CDT 7:55 PM CDT
Astronomical Twilight 6:06 AM CDT 8:23 PM CDT
Moon 1:24 AM CDT (10/9) 3:12 PM CDT (10/9)
Length of Visible Light 12h 22m
Length of Day
11h 33m
Last Quarter, 36% of the Moon is Illuminated
Oct 9
Last Quarter
Oct 15
New
Oct 21
First Quarter
Oct 29
Full
Nov 6
Last Quarter

Hourly Weather History & Observations

Time (CDT) Temp. Heat Index Dew Point Humidity Pressure Visibility Wind Dir Wind Speed Gust Speed Precip Events Conditions
12:53 AM 52.0 °F - 44.1 °F 74% 30.05 in 10.0 mi SE 6.9 mph - N/A   Partly Cloudy
1:53 AM 52.0 °F - 45.0 °F 77% 30.03 in 10.0 mi SSE 5.8 mph - N/A   Clear
2:53 AM 51.8 °F - 44.6 °F 76% 30.03 in 10.0 mi East 3.5 mph - N/A   Partly Cloudy
3:53 AM 55.0 °F - 46.9 °F 74% 30.01 in 10.0 mi SSE 8.1 mph - N/A   Mostly Cloudy
4:53 AM 57.0 °F - 48.0 °F 72% 29.99 in 10.0 mi SE 9.2 mph - N/A   Overcast
5:53 AM 55.9 °F - 48.0 °F 75% 30.00 in 10.0 mi SSE 15.0 mph - N/A   Overcast
6:53 AM 55.9 °F - 48.9 °F 77% 30.01 in 10.0 mi SSE 12.7 mph - N/A   Overcast
7:41 AM 57.2 °F - 50.0 °F 77% 30.02 in 10.0 mi SSE 8.1 mph - N/A   Overcast
7:53 AM 57.0 °F - 50.0 °F 77% 30.01 in 10.0 mi SSE 8.1 mph - N/A   Overcast
8:22 AM 57.2 °F - 50.0 °F 77% 30.02 in 10.0 mi SSE 9.2 mph - N/A   Overcast
8:53 AM 59.0 °F - 51.1 °F 75% 30.01 in 10.0 mi SSE 9.2 mph - N/A   Overcast
9:53 AM 62.1 °F - 52.0 °F 70% 30.01 in 10.0 mi SSE 15.0 mph - N/A   Mostly Cloudy
10:53 AM 64.9 °F - 53.1 °F 65% 30.00 in 10.0 mi SSE 16.1 mph - N/A   Overcast
11:50 AM 68.0 °F - 55.4 °F 64% 29.98 in 10.0 mi South 12.7 mph - N/A   Overcast
11:53 AM 69.1 °F - 55.0 °F 61% 29.97 in 10.0 mi South 16.1 mph 21.9 mph N/A   Overcast
12:53 PM 71.1 °F - 55.9 °F 59% 29.94 in 10.0 mi South 19.6 mph 33.4 mph N/A   Overcast
1:11 PM 71.6 °F - 57.2 °F 60% 29.93 in 10.0 mi South 19.6 mph - N/A   Mostly Cloudy
1:53 PM 72.0 °F - 57.0 °F 59% 29.90 in 10.0 mi South 24.2 mph 29.9 mph N/A   Mostly Cloudy
2:53 PM 77.0 °F - 59.0 °F 54% 29.86 in 10.0 mi South 21.9 mph 28.8 mph N/A   Mostly Cloudy
3:53 PM 79.0 °F - 60.1 °F 52% 29.85 in 10.0 mi South 21.9 mph 27.6 mph N/A   Scattered Clouds
4:53 PM 81.0 °F 81.7 °F 61.0 °F 50% 29.83 in 10.0 mi South 19.6 mph 24.2 mph N/A   Scattered Clouds
5:53 PM 82.0 °F 82.7 °F 61.0 °F 49% 29.83 in 10.0 mi South 12.7 mph - N/A   Scattered Clouds
6:53 PM 78.1 °F - 62.1 °F 58% 29.85 in 10.0 mi SSE 8.1 mph - N/A   Scattered Clouds
7:53 PM 75.0 °F - 63.0 °F 66% 29.85 in 10.0 mi SSE 9.2 mph - N/A   Partly Cloudy
8:53 PM 73.9 °F - 63.0 °F 68% 29.88 in 10.0 mi SSE 5.8 mph - N/A   Partly Cloudy
9:53 PM 72.0 °F - 63.0 °F 73% 29.91 in 10.0 mi SSE 5.8 mph - N/A   Partly Cloudy
10:53 PM 69.1 °F - 62.1 °F 78% 29.94 in 10.0 mi Calm Calm - N/A   Clear
11:53 PM 66.9 °F - 62.1 °F 84% 29.94 in 10.0 mi SSE 4.6 mph - N/A   Scattered Clouds